User: anonymous
Location: Arrakis Observatory
(44.1122°N, 95.7153°W)
Time: 01:37:49
(UTC-05:00)
Language:

Coronas F rocket - Orbit

View from above orbital plane
View from above orbital plane
View from above satellite
View from above satellite

Ground track
Ground track

The orbit data is extracted from the following two-line orbital elements,

1 26874U 01032B   14209.12393629  .00007824  00000-0  12438-3 0  7387
2 26874 082.4746 300.3921 0013599 261.1799 098.7913 15.52996631727651
Epoch (UTC): 28 July 2014 02:58:28
Eccentricity: 0.0013599
inclination: 82.4746°
perigee height: 399 km
apogee height: 417 km
right ascension of ascending node: 300.3921°
argument of perigee: 261.1799°
revolutions per day: 15.52996631
mean anomaly at epoch: 98.7913°
orbit number at epoch: 72765

The dashed part of the orbit path shows where the satellite is in the earth's shadow,  

DLR